Wind_Speed
35 34 34 34 34 35 35 35 35 36 36 36 36 35 35 34 34 35 35 35 35 35 35 35 35 35 34 34 34 34 34 33 33 33 32 32 31 30 29 28 28 27 26 24 23 24 27 30 30 28 24 23 23 25 26 26 25 23 22 20 19 19 21 24 25 23 20 16 16 18 20 21 23 24 25 27 27 26 23 21 19 18 17 17 17 16
35 35 34 34 35 35 36 36 36 36 36 36 36 36 35 35 34 35 35 35 35 35 35 35 35 34 34 34 34 33 33 33 33 32 32 31 30 30 29 28 27 27 26 24 24 25 28 30 30 28 25 23 24 26 26 26 25 24 22 20 19 19 21 24 25 25 22 18 17 18 19 21 22 23 24 25 25 24 22 21 20 19 18 17 17 17
36 36 35 35 35 35 36 36 36 36 36 36 36 36 35 35 34 34 34 35 35 35 34 34 34 34 34 34 33 33 33 33 32 32 31 30 30 29 28 28 27 26 25 25 25 26 29 30 29 27 25 25 26 27 27 26 25 24 23 21 20 20 22 24 25 26 24 21 18 18 19 20 21 22 23 23 23 23 22 21 20 19 19 18 18 17
37 36 36 35 35 35 35 35 35 35 35 35 35 35 35 34 34 33 33 34 34 34 34 33 33 33 33 33 33 33 33 32 32 31 30 29 29 28 28 27 27 26 25 25 26 27 30 30 29 27 26 27 27 27 27 26 25 24 23 22 21 22 23 24 25 26 25 22 19 19 19 20 20 21 22 22 23 22 22 21 21 20 19 19 18 17
37 37 36 36 35 35 35 35 35 35 35 35 34 34 34 34 33 33 33 33 33 33 33 33 32 32 32 32 32 32 32 32 31 30 29 29 28 28 27 27 26 26 25 25 27 29 30 30 29 29 29 28 28 27 26 25 24 24 24 24 23 23 23 24 25 26 26 23 20 19 19 19 20 21 22 22 22 22 22 22 21 20 20 19 18 17
37 37 36 35 35 34 34 34 34 34 34 34 34 34 33 33 33 32 32 32 32 32 32 32 32 32 32 32 32 32 31 31 30 29 28 28 27 27 26 26 26 26 26 26 28 30 31 31 31 30 29 28 27 26 25 24 24 24 25 24 24 23 23 24 26 27 26 23 20 19 19 19 20 20 21 22 22 22 22 22 21 20 20 19 18 17
37 36 36 35 34 34 33 33 33 33 33 33 33 33 33 32 32 32 31 31 31 31 31 31 31 31 31 31 31 31 31 30 29 28 27 27 26 26 25 25 25 25 26 27 29 30 31 31 30 30 28 27 25 24 24 24 24 25 25 24 23 23 24 26 27 28 26 22 19 18 18 19 19 20 21 22 22 22 22 22 21 20 19 18 18 17
36 36 35 34 34 33 32 32 32 32 32 33 32 32 32 31 31 31 31 30 30 30 30 30 30 30 30 30 30 30 29 29 28 27 26 25 25 25 24 24 25 25 26 27 28 29 30 30 29 28 26 25 24 23 23 24 24 25 24 23 22 23 25 27 28 27 24 20 18 18 18 18 19 20 21 21 22 22 22 21 20 20 19 18 17 17
36 35 35 34 33 32 32 32 32 32 32 32 32 32 31 31 31 30 30 29 29 29 29 29 29 29 29 28 28 28 28 27 26 25 25 24 24 24 24 24 24 25 26 27 27 28 28 28 27 25 24 22 22 22 23 24 24 23 23 22 23 24 26 27 27 25 21 19 18 18 18 18 18 19 20 21 21 22 21 21 20 19 18 18 17 17
35 35 34 33 33 32 31 31 31 31 31 31 32 31 31 31 30 30 29 29 28 28 28 28 28 28 28 28 27 26 26 25 24 24 24 24 24 24 24 24 24 24 25 25 26 26 26 25 23 22 22 22 22 23 23 23 23 23 22 23 24 25 27 27 25 22 20 19 18 18 18 18 18 19 20 21 21 21 21 20 20 19 18 17 17 17
35 34 34 33 32 32 31 31 31 31 31 31 31 31 30 30 30 29 29 28 28 28 28 28 27 27 27 27 26 25 24 24 23 23 23 23 23 23 23 23 23 24 24 24 24 24 23 22 21 21 22 22 23 23 23 23 23 22 23 23 25 26 26 25 22 20 19 19 18 18 18 18 18 19 19 20 21 21 20 20 19 19 18 17 17 17
34 34 34 33 32 32 31 31 31 31 31 31 31 31 30 30 29 29 28 28 27 27 27 27 27 26 26 26 26 25 23 23 22 22 22 22 22 22 22 22 22 22 23 23 22 22 21 20 21 22 23 23 23 23 23 23 22 23 23 25 26 26 25 22 20 19 19 19 19 19 18 18 18 19 19 20 20 20 20 19 19 18 18 18 17 17
34 34 33 33 32 32 31 31 31 31 31 30 30 30 30 30 29 29 28 28 27 27 27 27 27 26 26 25 25 24 23 22 22 21 21 21 21 21 21 21 21 21 21 21 21 20 20 20 22 23 24 24 23 23 22 22 22 23 24 26 26 26 23 21 19 19 19 19 19 19 19 19 19 19 19 20 20 20 19 19 19 18 18 18 18 18
35 34 34 33 32 32 32 31 31 31 31 31 30 30 30 30 29 29 28 28 27 27 27 27 27 26 26 25 25 24 23 22 21 21 21 21 21 20 20 20 20 20 20 20 20 20 20 22 23 24 23 23 22 22 22 22 23 24 26 27 27 25 22 21 19 19 19 20 20 20 20 19 19 20 20 20 20 19 19 19 19 18 18 18 18 18
35 34 34 33 33 32 32 31 31 31 31 31 30 30 30 30 29 29 28 28 28 27 27 27 27 27 26 25 25 25 24 22 21 21 20 20 20 20 20 20 20 20 20 20 20 21 22 23 24 23 22 21 21 22 22 23 24 26 27 28 27 24 22 20 20 20 20 20 20 20 20 20 20 20 20 20 20 19 19 19 19 19 19 19 18 18
35 34 34 33 33 32 32 32 32 31 31 31 31 30 30 30 29 29 28 28 28 28 27 27 27 27 26 26 26 25 24 23 22 21 20 21 21 21 21 21 21 21 21 21 22 23 23 24 23 22 21 21 21 22 23 24 25 27 28 28 26 24 22 20 20 20 20 20 20 20 20 21 21 21 21 20 20 19 19 19 19 19 19 19 19 18
34 34 34 33 33 33 32 32 32 31 31 31 31 30 30 30 29 29 28 28 28 28 27 27 27 27 27 26 26 25 25 24 23 22 21 21 21 22 22 22 23 23 24 24 25 25 24 22 21 20 21 21 22 22 23 25 27 28 29 27 25 23 21 21 21 21 21 21 21 20 21 21 21 21 21 20 20 19 19 19 19 19 19 19 19 19
34 33 33 33 32 32 32 32 31 31 31 31 31 30 30 30 29 29 29 28 28 27 27 27 26 26 26 26 26 26 25 24 23 23 22 22 22 22 22 23 24 25 26 26 25 24 22 21 20 21 21 22 22 23 24 26 27 28 28 26 24 22 21 21 21 21 21 21 20 20 20 21 21 21 21 20 20 19 19 19 19 19 19 19 19 19
32 32 32 32 32 32 32 31 31 31 31 31 31 30 30 30 29 29 28 28 27 27 26 26 26 26 26 26 26 26 26 25 24 23 22 21 21 22 22 22 23 24 23 22 22 21 21 21 22 23 23 23 24 25 26 27 28 28 27 25 23 22 21 22 22 21 21 21 20 20 20 20 21 21 21 20 20 19 19 19 19 19 19 19 19 19
31 31 31 31 31 31 31 31 31 31 31 31 31 30 30 30 29 29 28 28 27 27 27 26 25 25 26 25 25 25 25 24 23 22 22 21 21 21 22 22 21 21 21 21 21 22 23 24 25 25 25 25 26 26 27 28 28 27 26 24 22 22 22 22 22 22 21 20 20 20 20 20 20 21 20 20 20 19 19 19 19 20 20 19 19 19
30 30 30 30 30 31 31 31 30 30 30 30 30 30 30 29 29 28 28 28 27 27 27 26 25 25 25 25 24 24 24 23 23 22 22 22 22 23 23 24 24 24 24 24 25 26 26 27 27 27 27 27 27 28 28 28 27 26 24 23 22 22 22 22 22 22 21 20 20 19 19 20 20 20 20 20 19 19 19 19 20 20 20 19 19 19
29 30 30 29 30 30 30 30 30 30 30 30 30 30 29 29 28 28 28 28 27 26 26 25 25 25 24 24 23 23 22 22 23 23 23 24 24 25 26 26 27 27 27 27 28 28 28 28 28 28 28 28 28 28 28 27 26 24 23 22 22 22 22 22 22 22 21 20 20 19 19 19 19 20 20 19 19 19 19 19 20 20 20 20 19 19
29 29 29 29 29 29 29 30 30 30 30 29 29 29 29 29 29 29 28 28 27 26 25 25 25 24 24 23 23 22 22 22 23 24 24 24 25 25 26 27 28 28 28 28 28 28 28 28 28 28 28 28 28 27 27 26 25 23 22 22 22 22 22 22 22 21 21 20 19 19 19 19 19 19 19 19 19 19 19 20 20 20 20 20 19 19
29 29 29 29 29 29 29 29 30 30 30 29 29 29 29 29 29 28 28 27 26 26 25 24 24 24 23 23 23 23 23 23 24 24 24 24 24 25 25 26 26 27 27 27 27 27 27 27 28 28 27 27 27 26 26 24 23 22 22 22 22 22 22 22 21 21 20 20 19 19 19 19 19 19 19 19 19 19 19 20 20 20 20 20 20 19
28 28 28 29 29 29 29 29 30 29 29 29 29 29 29 29 28 28 27 26 25 25 24 23 23 23 23 23 23 23 24 24 25 24 24 24 23 23 24 25 25 26 26 26 26 26 27 27 27 27 27 26 26 25 24 23 22 22 22 22 22 22 22 21 21 20 20 19 19 19 18 18 19 19 19 19 19 19 19 20 20 20 20 20 20 20
28 28 28 28 28 29 29 29 29 29 29 29 29 29 29 28 28 27 26 25 24 24 23 22 22 23 23 23 24 24 25 25 25 25 24 24 23 23 23 24 25 25 26 26 26 26 26 26 26 26 26 25 25 24 23 22 22 22 22 22 22 21 21 21 21 20 20 19 19 18 18 18 18 18 19 19 19 19 19 20 20 20 20 20 20 20
27 27 28 28 28 28 28 28 29 29 29 29 29 29 28 28 27 26 25 24 24 24 23 23 23 23 24 24 24 25 25 26 25 25 24 24 23 23 23 24 25 25 26 26 26 26 26 25 25 25 24 24 23 22 22 21 21 21 22 21 21 21 21 21 20 20 19 19 19 18 18 18 18 18 18 19 19 19 20 20 20 20 20 20 20 20
27 27 27 27 27 27 28 28 28 28 28 28 28 28 28 27 25 24 24 24 24 24 24 24 24 24 24 24 25 25 26 26 26 25 25 24 23 23 23 23 24 25 25 25 25 25 25 24 24 23 22 22 21 21 21 21 21 21 21 21 21 21 20 20 20 20 19 19 18 18 18 18 18 18 18 19 19 19 20 20 20 20 20 20 20 20
26 27 27 27 27 27 27 27 28 27 27 27 27 27 27 26 24 24 24 24 24 24 24 24 24 24 25 25 25 26 26 26 26 25 25 24 23 23 22 23 24 24 24 24 24 24 23 23 22 21 21 20 20 20 20 21 21 21 21 21 20 20 20 20 20 19 19 19 18 18 18 18 18 18 19 19 19 19 20 20 20 20 21 21 21 21
26 26 26 27 27 27 27 27 27 27 27 27 26 26 26 26 24 24 24 24 23 23 24 24 24 24 25 25 25 26 26 25 26 25 25 24 23 22 22 22 23 23 23 23 23 22 22 21 20 20 19 19 19 20 20 20 21 21 20 20 20 20 20 20 20 19 19 19 19 19 19 19 19 19 19 19 19 20 20 20 20 21 21 21 21 21
25 26 26 26 26 26 27 27 26 26 26 26 26 26 25 25 24 23 23 23 23 23 24 24 24 24 25 25 26 25 25 25 25 25 25 24 23 22 22 22 23 23 23 23 22 22 21 20 19 19 19 19 19 20 20 20 20 20 20 20 20 20 20 20 20 19 19 19 19 19 19 19 19 20 20 20 20 20 20 21 21 21 21 21 21 21
25 25 25 25 25 25 25 25 25 25 25 25 25 25 24 23 23 22 22 23 23 23 24 24 24 25 25 25 26 25 25 24 25 25 25 24 23 23 22 22 23 23 23 22 22 22 21 20 19 19 19 19 19 20 20 20 20 20 20 20 20 20 20 20 20 20 19 19 19 19 19 20 20 20 20 21 21 21 21 21 21 21 21 21 21 22
24 24 24 24 24 24 24 24 24 24 24 24 23 23 23 22 22 22 22 23 23 24 24 24 24 25 25 25 26 26 25 25 25 25 25 24 23 23 23 23 23 23 23 22 22 22 21 20 19 19 19 19 20 20 20 20 20 20 20 20 20 20 20 20 20 20 20 20 20 20 20 20 20 21 21 21 21 21 21 21 21 22 22 22 22 22
23 23 23 23 23 24 24 23 23 23 23 23 22 22 22 22 22 23 23 23 24 24 24 25 25 25 25 25 26 26 26 25 25 25 24 24 24 23 23 23 23 23 23 22 22 22 22 21 20 19 19 19 20 20 20 20 20 20 20 20 20 20 20 20 20 20 20 20 20 20 21 21 21 21 21 21 22 22 22 22 22 22 22 22 22 22
23 23 22 22 23 23 23 23 23 22 22 22 22 22 22 23 23 23 24 24 25 25 25 25 25 26 26 26 26 26 26 26 25 25 25 24 24 24 23 23 23 23 23 23 22 22 22 21 21 20 20 20 20 20 20 20 20 20 20 20 20 20 20 20 20 20 20 20 21 21 21 21 22 22 22 22 22 22 22 22 22 22 22 23 23 23
22 22 22 22 22 22 22 23 23 22 23 23 23 23 23 23 24 25 25 26 26 27 27 27 27 27 26 26 26 26 26 26 26 25 25 24 24 24 24 23 23 23 23 23 23 22 22 21 21 21 20 20 20 20 20 20 20 20 20 20 20 21 21 21 21 21 21 21 21 21 22 22 22 22 22 22 23 23 23 23 23 23 23 23 23 23
22 22 22 22 22 22 22 22 23 23 23 23 24 24 24 25 25 26 26 27 28 28 28 28 28 28 28 27 27 27 26 26 26 26 25 24 24 24 24 23 23 23 23 23 23 22 22 22 21 21 21 20 20 20 20 20 20 20 20 20 20 21 21 21 21 21 21 21 21 22 22 22 22 23 23 23 23 23 23 23 23 23 23 23 23 23
23 23 23 22 22 23 23 23 23 23 24 24 25 25 26 26 26 27 27 28 28 29 29 29 29 29 28 28 28 27 27 26 26 25 25 24 24 24 23 23 23 23 23 23 23 23 22 22 21 21 21 21 21 21 21 21 21 21 21 21 21 21 21 21 21 21 21 22 22 22 23 23 23 23 23 23 23 23 23 24 24 24 24 24 24 23
23 23 23 23 23 23 23 24 24 24 24 24 25 25 26 26 27 27 27 28 28 28 29 29 29 29 29 28 28 27 27 26 25 25 25 24 24 24 23 23 23 23 23 23 23 23 22 22 22 21 21 21 21 21 21 21 21 21 21 21 21 21 21 21 21 21 22 22 22 23 23 23 23 23 24 24 24 24 24 24 24 24 24 24 24 24
23 23 23 23 23 23 24 24 24 24 24 25 25 25 26 26 26 26 27 27 27 27 28 28 28 28 28 28 28 27 26 26 25 25 24 24 24 23 23 23 23 23 23 23 23 23 23 22 22 22 22 22 22 21 21 22 22 22 21 21 21 21 21 22 22 22 22 22 23 23 23 24 24 24 24 24 24 24 24 24 24 24 24 24 24 24
23 23 23 23 23 23 23 23 24 24 24 24 25 25 25 26 26 26 26 26 26 26 27 27 28 28 28 28 27 27 26 25 25 24 24 24 24 24 23 23 23 23 23 23 23 23 23 23 22 22 22 22 22 22 22 22 22 22 22 21 21 22 22 22 22 22 22 23 23 23 24 24 24 24 24 24 25 25 25 25 25 25 25 24 24 24
23 23 22 22 22 22 22 23 23 23 24 24 24 25 25 25 25 25 26 26 26 26 26 26 27 27 26 26 26 26 25 25 25 24 24 24 24 23 23 23 23 23 23 23 23 23 23 23 23 23 23 23 23 22 22 22 22 22 22 22 22 22 22 22 22 22 22 23 23 24 24 24 25 25 25 25 25 25 25 25 25 25 25 25 25 25
23 22 22 21 21 21 21 22 22 23 23 24 24 24 25 25 25 25 25 25 25 25 26 26 26 26 25 25 25 25 25 25 25 24 24 24 24 24 23 23 23 23 23 23 23 23 23 23 23 23 23 23 23 23 22 22 22 22 22 22 22 22 21 22 23 23 23 24 24 25 25 25 25 25 26 26 26 25 25 25 25 25 25 25 25 25
23 22 22 21 21 21 21 21 21 22 22 23 23 24 24 24 24 24 24 24 24 24 25 25 25 25 25 25 25 25 25 25 25 24 24 24 24 24 23 23 23 23 23 23 23 24 24 24 24 24 24 23 23 23 23 23 22 22 22 22 22 22 22 22 23 23 24 24 25 25 25 26 26 26 26 26 26 26 26 26 26 25 25 25 25 25
24 23 22 22 21 21 21 21 21 21 22 22 22 23 23 24 24 24 24 24 24 24 24 24 24 24 24 24 24 25 25 25 25 24 24 24 24 24 23 23 23 23 23 23 24 24 24 24 24 24 24 24 23 23 23 23 23 23 23 23 23 23 23 23 24 24 25 25 26 26 26 27 27 27 27 26 26 26 26 26 26 26 26 26 25 25
24 23 23 22 22 22 22 22 22 21 21 22 22 22 23 23 23 23 23 23 23 23 23 23 23 23 23 24 24 24 24 25 25 25 24 24 24 24 23 23 23 23 23 24 24 24 24 24 24 24 24 24 24 24 24 24 24 23 23 24 24 24 24 24 24 25 26 26 27 27 27 27 27 27 27 27 27 27 27 26 26 26 26 26 26 26
25 24 24 23 23 23 23 23 22 22 22 22 22 22 22 22 23 23 23 23 23 23 23 23 23 23 23 24 24 24 24 24 24 25 24 24 24 24 24 23 23 23 24 24 24 24 24 25 25 25 24 24 24 24 24 25 24 24 24 25 25 24 24 25 25 26 26 27 27 28 28 28 28 28 27 27 27 27 27 27 27 26 26 26 26 26
25 25 25 24 24 24 24 24 23 23 23 22 22 22 22 22 22 22 23 23 23 23 23 23 23 23 23 23 24 24 24 24 24 24 24 24 24 24 24 23 23 24 24 24 24 24 25 25 25 25 25 25 24 25 25 25 25 25 25 25 25 25 25 26 26 27 27 27 28 28 28 28 28 28 28 28 28 27 27 27 27 27 26 26 26 26
25 25 25 25 25 25 24 25 24 24 24 24 23 23 23 23 23 22 22 23 23 23 23 23 23 23 23 23 24 24 24 24 24 24 24 24 24 24 24 24 24 24 24 24 24 25 25 25 25 25 25 25 25 25 26 26 26 26 26 26 26 26 26 26 27 27 27 27 28 28 28 28 28 28 28 28 28 27 27 27 27 27 26 26 26 26
26 26 26 26 26 26 26 26 26 25 25 25 25 24 24 23 23 23 23 23 23 23 23 23 23 23 23 23 24 24 24 24 24 24 24 24 25 24 24 24 24 24 24 24 25 25 25 26 26 26 26 26 26 26 27 27 27 27 26 26 26 26 26 27 27 28 28 28 28 28 28 28 29 29 28 28 28 27 27 27 27 26 27 26 26 26
27 27 27 27 27 27 27 27 27 27 26 26 26 26 25 25 24 24 24 24 23 23 23 23 23 23 23 23 24 24 24 24 24 24 25 25 25 25 25 25 25 24 24 25 25 25 26 26 26 26 27 27 28 28 28 28 28 27 27 27 27 27 27 27 28 28 28 28 28 28 28 28 28 28 28 28 28 27 27 27 27 27 27 27 27 27
Wind_Direction
297 297 297 297 297 297 297 297 297 296 296 295 295 294 294 293 292 292 291 291 290 290 289 289 289 289 289 289 289 289 289 289 288 287 286 285 284 283 282 282 280 279 277 274 271 270 272 274 277 279 283 287 289 289 286 283 279 276 274 276 280 285 289 290 292 293 292 283 270 263 261 258 255 253 253 256 260 263 266 266 266 266 267 269 270 269
296 296 297 297 297 297 296 296 296 296 295 295 295 295 294 293 292 291 291 290 289 289 289 288 289 289 289 289 290 290 289 289 288 287 285 284 283 282 281 280 278 276 274 271 270 270 272 274 277 280 285 289 289 288 285 282 278 275 274 275 279 283 286 289 292 295 297 291 278 267 261 258 256 256 256 258 260 262 263 264 265 266 267 268 268 267
295 296 296 296 296 296 295 295 295 294 294 294 294 294 294 293 292 291 290 290 289 288 288 288 289 289 290 290 291 291 290 290 289 287 285 284 282 281 280 278 276 273 271 269 269 270 272 275 279 283 288 290 289 286 283 280 277 274 273 275 277 280 283 286 290 294 296 293 282 269 261 257 255 256 257 259 260 261 261 262 263 264 266 266 266 264
295 295 295 295 295 295 295 295 294 294 294 294 294 294 294 293 292 291 290 289 289 288 288 288 289 290 290 291 292 292 292 291 290 288 286 284 282 281 279 277 274 271 268 267 268 270 274 277 282 287 290 290 288 285 282 279 276 273 272 273 275 278 281 284 287 290 293 290 281 269 261 258 256 257 258 259 259 259 260 260 261 262 263 264 263 261
294 294 295 295 295 295 294 294 294 294 294 294 294 294 294 293 293 292 291 290 289 289 289 289 290 291 291 292 293 293 293 292 291 290 288 286 283 281 279 276 273 269 267 266 268 271 275 280 284 288 289 287 285 282 280 277 275 272 270 271 273 276 279 281 284 287 289 286 278 267 261 258 257 257 258 258 258 257 257 258 258 259 260 261 260 256
293 294 294 294 294 294 294 293 293 293 293 293 293 294 294 294 293 292 291 290 290 289 289 290 291 292 293 293 294 294 294 293 293 291 289 287 284 282 280 277 273 269 266 266 267 271 275 280 283 285 285 284 282 280 277 275 273 271 270 271 273 276 277 279 283 285 287 283 274 264 259 257 256 256 256 256 256 255 255 255 256 257 257 257 256 252
293 293 293 293 293 293 293 292 292 292 292 293 293 293 294 294 293 293 292 291 291 291 291 291 292 293 294 294 295 295 294 294 294 293 291 288 286 283 281 278 274 271 268 267 268 271 275 278 280 281 281 279 278 277 276 274 272 271 271 272 274 275 277 280 283 285 285 279 270 262 257 254 253 253 253 253 253 252 252 253 253 254 255 254 251 246
292 292 292 292 292 292 292 292 292 292 292 292 293 293 294 294 293 293 292 292 292 292 292 292 293 294 294 295 295 295 295 295 295 293 292 289 287 284 282 279 276 273 270 269 270 271 273 275 276 276 276 276 275 275 274 272 271 271 271 272 273 275 278 281 284 285 283 275 266 259 255 252 251 250 250 250 250 250 250 251 251 252 252 250 247 242
291 291 291 290 290 291 291 291 292 292 292 293 294 294 294 294 294 293 292 292 292 292 293 293 294 294 294 294 294 295 295 295 295 294 292 290 287 284 282 279 276 274 272 271 271 271 272 273 273 273 273 274 274 273 271 270 270 270 271 272 273 276 279 282 284 283 279 271 263 258 255 251 249 248 248 247 247 247 248 249 249 250 249 247 242 237
289 289 289 289 289 290 290 291 291 292 292 293 294 294 295 294 294 293 293 292 292 292 292 293 293 294 294 294 294 295 295 295 294 293 291 289 287 284 282 279 276 274 272 271 270 270 270 270 270 271 272 272 271 269 268 268 269 271 272 273 275 278 280 282 282 279 274 268 263 259 255 251 249 247 246 246 245 245 246 247 247 247 246 243 238 234
288 287 287 288 288 288 289 290 291 292 292 293 294 294 294 294 294 293 293 293 293 293 292 292 292 293 294 294 294 295 295 294 293 292 290 288 286 284 281 278 276 273 271 270 269 268 268 268 270 271 270 269 267 266 267 268 270 272 273 274 277 279 281 281 279 275 270 266 264 261 257 253 249 247 245 244 244 244 244 245 245 244 242 239 235 231
286 286 286 286 286 287 287 288 289 291 292 293 294 294 294 293 293 293 292 292 292 292 292 292 292 292 293 293 294 294 294 293 292 290 289 287 285 283 281 278 275 273 270 268 266 266 266 268 269 269 267 266 265 266 268 270 272 273 274 276 278 279 279 277 274 270 267 266 264 262 258 254 251 248 246 244 243 243 243 243 242 241 238 235 232 229
284 284 284 284 284 285 286 287 289 290 292 292 293 293 293 293 293 292 291 291 291 290 290 291 291 291 292 292 292 292 292 291 290 289 287 286 284 282 280 277 274 272 269 266 265 264 265 266 266 266 264 264 266 268 271 273 274 274 276 277 278 278 276 272 268 266 265 264 263 261 258 255 252 250 248 246 244 243 242 241 239 237 235 232 229 227
283 283 283 283 283 283 284 286 288 290 291 292 292 293 293 293 293 292 291 290 290 289 289 289 290 290 291 291 291 291 290 289 288 287 285 284 282 281 278 276 273 270 267 265 263 262 263 263 262 262 263 266 269 273 274 275 275 276 277 278 279 277 273 267 263 262 262 262 262 260 258 256 254 252 249 247 245 243 241 238 236 234 231 229 228 227
281 281 281 282 282 283 284 285 287 288 289 291 291 292 292 292 292 291 290 289 289 288 288 288 288 289 289 289 289 289 288 287 285 284 283 281 280 278 276 274 272 269 267 264 263 261 260 259 259 261 265 270 274 276 276 276 277 278 278 279 278 275 269 263 260 259 260 261 260 259 257 256 254 252 251 248 245 242 239 236 234 231 229 228 227 226
280 281 281 281 282 283 284 284 286 287 288 289 290 291 292 291 291 290 289 288 287 287 287 287 288 288 288 288 288 287 287 285 283 281 280 278 277 276 275 274 273 271 269 266 263 260 257 256 258 263 269 274 277 277 277 277 278 278 279 279 277 273 266 260 257 258 260 260 259 258 256 255 254 252 251 248 244 241 237 234 231 229 228 227 226 226
280 280 281 281 282 283 283 284 285 286 287 288 289 290 290 290 290 289 288 287 287 286 286 287 287 288 288 287 286 285 285 283 281 280 278 277 276 276 275 275 275 274 271 267 262 258 254 255 260 267 274 278 279 279 278 278 278 278 278 278 275 270 263 258 256 258 259 259 258 256 255 254 253 252 250 247 243 239 235 232 229 227 227 226 226 227
280 281 281 282 282 283 283 284 285 286 286 287 288 288 288 288 288 287 287 286 286 286 285 285 286 286 287 285 283 283 282 281 279 278 277 277 277 277 277 277 276 274 270 265 260 257 257 262 269 276 280 281 281 281 280 279 279 278 278 276 272 266 260 256 256 258 259 258 257 255 254 253 251 250 248 245 241 237 233 230 228 226 226 226 226 227
281 281 282 282 282 283 283 284 284 285 286 286 286 287 287 286 286 286 285 285 284 284 283 283 283 283 283 282 281 281 281 280 279 278 277 277 278 279 279 279 277 274 270 266 263 263 267 273 278 281 282 282 282 281 281 280 279 278 276 272 267 261 257 256 257 258 258 257 256 254 252 250 249 247 245 242 238 235 231 228 227 226 225 226 227 227
281 281 282 282 282 283 283 284 284 285 285 285 286 286 285 285 285 284 284 283 282 282 281 281 281 281 280 279 279 279 279 279 279 278 278 277 278 279 279 280 279 277 274 271 271 273 276 278 280 281 281 281 281 281 281 280 279 277 273 268 262 257 254 255 257 258 258 256 254 252 250 248 246 244 242 239 236 232 229 227 226 225 225 226 227 228
281 281 281 282 282 283 284 284 284 284 284 284 285 285 284 284 283 283 282 281 281 280 280 279 279 279 278 278 278 278 279 279 280 280 279 278 278 278 279 279 279 279 278 277 277 278 278 279 279 279 280 280 281 281 281 280 278 274 269 262 256 253 253 254 256 257 257 255 253 250 247 245 243 241 239 236 233 231 228 226 226 225 226 226 227 228
281 282 282 282 283 283 284 284 284 284 284 284 284 283 283 282 281 280 280 279 278 278 278 278 278 278 278 278 278 279 279 280 281 281 280 279 279 279 279 279 279 279 279 279 279 279 279 279 279 279 279 279 280 280 279 277 274 269 263 256 251 250 251 253 255 255 254 253 250 248 245 242 240 238 236 234 231 229 228 226 226 226 226 227 228 229
282 282 282 283 283 283 283 283 283 283 283 282 282 281 281 280 279 278 277 277 276 276 276 276 277 278 278 278 278 278 279 280 281 281 281 280 280 279 279 279 279 280 280 280 280 280 280 280 279 279 279 279 278 278 276 273 269 264 257 252 249 248 250 252 253 253 251 250 247 245 242 240 237 236 234 232 230 229 228 227 226 227 227 228 229 230
282 283 283 283 283 283 283 283 282 282 282 281 280 280 279 279 278 277 277 276 276 276 276 277 277 277 277 277 278 278 279 280 280 281 281 281 280 280 280 280 281 281 281 281 281 281 280 280 280 279 278 277 276 274 272 268 263 257 252 249 247 248 249 250 250 249 248 246 244 242 239 237 235 234 232 231 230 229 228 228 227 228 228 229 230 231
284 284 284 284 284 284 283 282 282 281 281 280 279 279 278 278 277 277 276 275 275 275 275 276 276 276 276 277 277 278 279 280 281 282 282 281 281 280 280 280 281 282 282 281 281 281 280 279 279 278 277 275 273 270 267 262 257 252 249 247 247 247 248 248 247 246 245 243 241 239 237 235 234 232 231 230 230 229 228 228 229 229 230 230 231 232
286 286 286 285 285 284 283 282 282 281 280 279 278 278 278 277 276 275 274 273 272 272 272 273 274 274 275 276 277 279 280 281 281 282 283 282 281 281 280 280 280 280 280 280 280 279 278 277 277 276 274 272 269 265 261 256 252 248 247 246 246 246 246 246 244 243 241 240 238 237 235 234 233 232 231 230 230 230 229 230 230 230 231 232 232 233
287 287 287 286 285 284 283 282 281 280 280 279 278 277 277 276 276 274 272 271 270 270 272 272 273 274 275 277 279 280 281 282 282 283 283 282 281 280 280 279 279 279 279 279 279 278 277 276 275 273 271 268 264 260 256 252 249 247 246 245 245 244 244 243 241 240 238 237 236 235 234 233 233 232 232 231 231 231 231 231 231 232 232 233 233 234
289 288 287 286 285 284 283 282 281 280 279 278 278 277 276 276 274 273 271 271 270 271 272 273 274 275 276 278 279 281 281 282 282 282 282 281 280 280 279 279 278 278 278 278 277 277 276 274 273 270 267 264 261 257 253 249 247 246 245 244 243 242 241 240 239 237 236 235 235 234 234 234 233 233 233 233 232 232 232 233 233 233 234 234 234 235
290 289 288 287 285 284 283 281 280 279 278 278 277 276 276 275 274 272 271 271 271 271 273 274 275 276 277 278 279 280 281 281 281 281 281 280 280 280 279 278 277 277 276 276 276 276 275 273 270 267 264 261 257 254 251 249 247 245 244 242 241 240 239 237 237 236 235 234 234 234 234 235 235 235 235 234 234 234 234 234 234 234 235 235 235 235
290 289 288 287 286 284 283 282 280 279 278 277 276 275 275 274 274 272 271 271 271 272 273 274 276 276 277 278 278 279 280 280 281 280 280 280 280 280 279 277 275 275 275 275 274 274 272 271 268 265 261 258 255 253 251 249 247 245 242 241 239 238 237 236 235 235 235 235 235 235 236 236 236 236 236 236 236 236 236 236 236 236 236 236 236 236
289 289 288 287 286 285 284 283 282 280 279 277 276 275 275 275 274 273 272 271 271 272 273 274 275 276 277 277 278 278 278 279 280 280 280 280 280 279 277 275 274 274 273 273 273 272 270 268 266 263 260 256 253 251 249 248 246 244 241 240 238 237 236 236 235 235 235 236 236 236 237 237 238 238 238 238 238 237 237 237 236 236 236 236 236 236
289 288 288 287 286 286 285 284 282 281 280 278 277 276 276 275 274 273 272 272 272 272 273 274 274 275 276 276 277 278 278 277 278 278 279 279 279 278 276 274 273 272 272 271 271 270 268 265 263 261 259 256 253 250 248 246 245 243 241 239 238 237 236 236 236 236 237 237 237 238 238 239 239 239 239 239 239 238 238 237 237 237 237 236 236 236
288 288 287 286 285 285 284 283 282 281 279 278 277 275 274 273 272 271 270 270 271 272 272 273 273 274 275 276 277 277 277 277 276 276 277 277 276 275 274 272 271 270 270 269 268 267 266 263 260 258 257 255 253 250 247 245 243 242 240 239 238 238 237 237 237 238 238 238 239 239 240 240 240 240 240 240 239 239 238 238 237 237 237 236 236 235
288 287 287 286 285 284 283 282 281 279 278 276 275 273 271 270 268 268 268 268 269 270 272 272 273 274 275 275 276 277 277 276 276 275 274 274 274 273 272 270 269 269 268 267 266 265 264 262 260 257 254 253 252 250 247 245 242 241 240 239 239 239 239 239 239 239 240 240 240 241 241 241 241 241 241 240 240 239 239 238 238 237 237 236 236 235
288 288 287 286 285 284 284 283 281 279 277 275 273 271 269 267 266 266 266 266 267 269 270 272 273 273 274 275 276 276 276 276 275 274 272 272 271 270 269 268 267 267 266 265 264 263 262 260 259 256 253 251 250 249 247 244 242 241 240 240 240 240 240 240 241 241 241 241 241 242 242 242 241 241 241 240 240 239 239 238 237 237 236 236 236 235
289 289 288 287 286 286 285 284 282 280 278 276 274 273 270 268 266 265 265 265 266 268 269 271 272 273 274 275 276 276 276 275 274 272 271 269 268 267 266 266 265 265 264 263 262 261 260 259 257 255 252 250 248 247 246 244 242 241 241 241 241 241 242 242 243 243 243 243 243 243 243 242 242 241 241 241 240 239 239 238 237 237 236 236 235 235
287 287 287 287 286 286 285 284 283 281 279 278 276 275 273 271 269 267 266 266 266 267 268 270 271 273 274 275 276 276 276 275 273 271 270 268 267 266 265 264 264 263 263 262 261 260 259 257 256 254 252 249 247 245 245 245 243 242 242 242 243 243 244 244 244 244 244 244 244 244 244 243 242 242 241 241 240 240 239 238 237 237 236 236 235 235
285 284 285 285 285 284 284 284 283 282 280 279 278 277 275 274 272 270 269 268 268 268 269 270 271 272 274 275 276 276 276 274 272 270 268 267 265 264 264 263 262 262 262 261 260 259 258 256 254 253 250 248 246 244 244 244 244 244 243 244 244 245 246 246 246 246 246 246 245 245 244 244 243 242 242 241 240 240 239 238 238 237 236 236 236 235
282 282 282 283 283 283 283 283 282 281 280 279 278 277 276 275 274 272 271 270 269 269 269 270 271 272 273 275 275 275 274 273 271 269 267 265 264 263 263 262 261 261 261 260 260 258 257 256 254 251 249 247 246 244 244 244 244 245 245 245 246 246 247 248 248 248 247 247 246 246 245 245 244 243 242 241 241 240 239 239 238 237 237 236 236 235
280 280 281 282 282 282 282 282 281 281 280 279 278 277 277 276 275 273 272 271 271 270 270 271 271 272 273 274 274 274 273 271 269 267 265 264 263 262 262 261 261 260 260 259 259 258 256 255 253 251 249 247 246 245 244 245 245 246 246 247 248 248 249 249 249 249 249 248 248 247 246 246 245 244 243 242 241 240 239 239 238 238 237 237 236 236
280 280 281 281 281 281 281 281 281 280 280 279 278 278 277 276 276 275 274 273 272 271 271 271 271 272 272 273 273 272 271 269 267 266 264 263 262 261 261 260 260 259 259 258 258 257 256 254 252 251 249 247 246 246 245 246 246 247 247 248 248 249 249 250 250 250 250 250 249 248 247 246 245 244 243 242 241 241 240 239 239 238 238 238 237 237
280 280 281 281 281 280 280 280 280 280 279 279 278 277 277 276 276 275 275 274 273 273 272 272 272 272 272 271 271 270 269 267 266 265 263 262 261 261 260 260 259 259 258 258 257 256 255 253 252 250 249 248 247 247 247 247 248 248 248 249 249 250 250 251 251 251 251 251 250 249 248 247 245 245 244 243 242 241 240 240 239 239 239 238 238 238
280 280 281 280 280 279 279 279 279 279 278 278 277 277 277 276 276 276 275 275 274 274 273 273 272 272 271 270 269 269 268 266 265 264 263 262 261 260 260 259 259 258 257 257 256 255 254 252 251 249 248 248 247 247 247 248 249 249 249 249 250 250 251 252 252 252 252 252 251 250 248 247 246 245 244 243 242 241 241 240 240 240 239 239 239 239
279 280 280 280 279 278 278 277 277 277 277 276 276 276 276 276 276 276 275 275 275 274 274 273 273 272 271 270 269 268 267 267 265 264 262 261 261 260 259 259 258 257 257 256 255 254 253 252 250 249 248 248 248 248 248 248 249 249 250 250 250 251 251 252 252 253 253 252 251 250 249 247 246 245 244 243 243 242 242 241 241 240 240 240 240 240
279 279 279 278 278 278 277 277 276 276 276 275 275 275 276 276 276 276 275 275 275 274 274 274 274 273 272 271 269 268 267 267 266 265 263 262 260 260 259 258 258 257 256 255 254 253 252 251 250 249 248 248 248 248 248 248 249 249 250 251 251 252 252 252 253 253 254 253 252 251 249 248 247 246 245 244 244 243 242 242 242 241 241 241 241 241
279 279 278 278 278 278 277 277 276 276 276 276 275 275 275 275 275 275 275 275 275 274 274 274 274 273 272 271 270 269 268 267 266 266 264 263 261 260 259 258 258 257 256 255 254 253 252 251 250 249 249 248 248 248 248 248 249 249 251 252 252 253 254 254 254 254 254 253 252 251 250 249 248 247 246 245 244 244 243 243 242 242 242 242 242 241
279 279 278 278 278 277 277 277 277 277 277 276 276 275 275 275 275 275 275 274 274 274 274 274 274 273 272 271 270 269 268 267 266 266 266 264 262 261 259 258 258 257 256 255 254 253 252 251 250 250 249 249 248 248 248 249 249 250 251 252 253 254 255 256 255 255 254 253 252 251 250 249 248 248 247 246 245 245 244 244 243 243 243 243 242 242
278 278 278 277 277 277 277 277 277 277 277 277 276 276 275 275 275 274 274 274 274 273 273 273 273 273 272 271 270 269 268 267 266 266 266 265 264 262 261 259 258 257 256 255 254 253 252 251 250 250 249 249 249 248 249 249 249 250 250 252 253 254 255 256 256 255 254 254 253 252 251 250 249 248 247 247 246 246 245 245 244 244 244 244 243 243
277 277 276 276 276 276 276 276 277 277 277 277 276 276 276 276 275 275 274 274 274 273 273 272 272 271 271 270 270 269 268 267 266 265 265 265 264 264 262 261 259 258 256 255 254 253 252 251 250 250 249 249 248 248 248 249 250 250 251 252 253 254 255 256 256 255 255 254 253 252 251 251 250 249 248 247 247 247 246 246 245 245 245 244 244 244
276 276 275 275 275 275 275 275 275 275 276 276 276 276 276 276 276 275 275 275 274 273 273 272 271 270 270 269 269 268 268 267 266 265 264 264 264 264 263 261 260 258 257 255 254 253 252 251 251 250 250 249 249 248 249 249 250 251 252 252 253 254 254 255 255 255 255 254 253 253 252 251 250 250 249 248 248 247 247 246 246 246 245 245 244 244
275 275 274 274 274 273 273 273 273 274 274 275 275 275 276 276 275 275 275 275 274 274 273 272 271 270 269 269 268 268 267 267 266 265 264 264 264 263 262 261 260 258 256 255 254 253 252 251 251 251 251 251 250 249 249 250 251 252 252 253 254 254 254 254 255 255 255 254 254 253 252 252 251 251 250 249 248 247 247 247 246 246 246 245 245 244
Height
3104 3104 3104 3104 3103 3103 3102 3101 3101 3100 3099 3098 3098 3097 3097 3097 3097 3095 3094 3094 3093 3092 3092 3091 3090 3089 3089 3088 3088 3087 3086 3086 3085 3084 3084 3083 3083 3083 3083 3083 3082 3082 3082 3081 3082 3082 3082 3082 3081 3081 3081 3080 3080 3081 3081 3081 3081 3082 3082 3081 3081 3081 3081 3081 3081 3081 3080 3080 3080 3080 3080 3080 3081 3081 3081 3081 3081 3081 3081 3081 3081 3081 3081 3082 3082 3082
3101 3102 3102 3102 3101 3100 3099 3099 3098 3098 3097 3096 3095 3094 3094 3094 3094 3093 3092 3091 3090 3090 3089 3088 3087 3087 3086 3085 3085 3084 3084 3083 3083 3082 3082 3081 3081 3081 3081 3081 3080 3080 3080 3080 3080 3080 3080 3080 3079 3079 3079 3078 3079 3079 3079 3079 3080 3080 3080 3080 3080 3080 3080 3080 3080 3079 3078 3078 3078 3079 3079 3079 3079 3079 3079 3079 3079 3079 3079 3080 3080 3080 3080 3080 3081 3081
3098 3099 3099 3099 3099 3098 3097 3096 3096 3095 3094 3093 3093 3092 3092 3091 3091 3090 3089 3088 3088 3087 3086 3085 3085 3084 3083 3083 3083 3082 3081 3081 3080 3080 3079 3079 3079 3079 3079 3078 3078 3078 3078 3078 3078 3078 3078 3078 3078 3077 3077 3077 3077 3077 3078 3078 3078 3078 3078 3078 3078 3078 3078 3078 3078 3078 3077 3077 3077 3077 3077 3077 3077 3077 3078 3078 3078 3078 3078 3078 3079 3079 3079 3079 3079 3080
3096 3096 3096 3097 3096 3095 3095 3094 3093 3092 3092 3091 3090 3089 3089 3088 3088 3088 3087 3086 3085 3084 3083 3083 3082 3082 3081 3080 3080 3079 3079 3078 3078 3078 3078 3077 3077 3077 3077 3077 3076 3076 3076 3076 3076 3076 3076 3076 3075 3075 3075 3075 3075 3076 3076 3076 3076 3076 3077 3077 3077 3076 3076 3076 3076 3076 3075 3075 3075 3075 3075 3075 3075 3075 3076 3076 3076 3077 3077 3077 3078 3078 3078 3078 3078 3079
3093 3093 3093 3094 3093 3093 3092 3091 3090 3089 3089 3088 3088 3087 3086 3086 3085 3085 3084 3083 3083 3082 3081 3080 3080 3079 3078 3078 3077 3077 3077 3076 3076 3076 3075 3075 3075 3075 3075 3074 3074 3074 3074 3074 3074 3074 3074 3074 3073 3073 3073 3073 3073 3074 3074 3074 3074 3074 3075 3075 3075 3075 3074 3074 3074 3074 3074 3074 3074 3074 3073 3073 3073 3073 3074 3074 3075 3075 3076 3076 3076 3077 3077 3077 3078 3078
3092 3091 3091 3091 3091 3090 3090 3089 3088 3087 3086 3086 3085 3085 3084 3083 3083 3082 3082 3081 3080 3079 3078 3078 3078 3077 3076 3075 3075 3074 3074 3074 3074 3073 3073 3073 3073 3073 3073 3073 3072 3072 3072 3072 3072 3072 3072 3072 3071 3071 3071 3072 3072 3072 3072 3072 3072 3073 3073 3073 3073 3073 3073 3073 3072 3072 3072 3072 3073 3072 3072 3072 3072 3072 3072 3073 3073 3074 3074 3074 3075 3075 3076 3076 3077 3077
3089 3088 3088 3088 3088 3088 3087 3087 3086 3085 3084 3083 3083 3083 3082 3081 3080 3080 3079 3078 3078 3077 3076 3076 3075 3075 3074 3073 3073 3072 3072 3072 3072 3072 3072 3071 3071 3071 3071 3071 3070 3070 3070 3070 3070 3070 3070 3070 3070 3070 3070 3070 3070 3070 3070 3070 3071 3071 3071 3071 3071 3071 3071 3071 3070 3070 3070 3071 3071 3071 3070 3070 3070 3071 3071 3071 3072 3072 3073 3073 3073 3074 3075 3075 3075 3076
3087 3086 3086 3086 3085 3085 3084 3084 3083 3083 3082 3081 3080 3080 3080 3079 3078 3078 3077 3076 3075 3075 3074 3073 3073 3073 3072 3072 3071 3070 3070 3070 3070 3070 3069 3069 3069 3069 3069 3069 3068 3068 3068 3068 3068 3068 3068 3068 3068 3068 3068 3068 3068 3069 3069 3069 3069 3069 3069 3069 3069 3069 3069 3069 3068 3068 3068 3069 3069 3069 3069 3069 3069 3069 3069 3070 3070 3071 3071 3072 3072 3073 3073 3074 3074 3075
3084 3084 3083 3083 3083 3083 3082 3082 3081 3081 3080 3079 3078 3078 3077 3077 3076 3075 3075 3074 3074 3073 3072 3071 3071 3070 3070 3070 3069 3069 3068 3068 3068 3068 3068 3067 3067 3067 3067 3067 3067 3067 3067 3067 3067 3067 3066 3066 3066 3066 3067 3067 3067 3067 3067 3067 3067 3067 3067 3067 3068 3068 3067 3067 3067 3067 3067 3067 3067 3068 3068 3067 3068 3068 3068 3068 3069 3069 3070 3070 3071 3071 3072 3073 3073 3073
3082 3082 3081 3080 3080 3080 3080 3079 3078 3078 3077 3077 3076 3075 3075 3074 3073 3073 3073 3072 3072 3071 3070 3070 3069 3069 3068 3068 3068 3067 3067 3067 3066 3066 3066 3065 3065 3065 3065 3065 3065 3065 3065 3065 3065 3065 3064 3064 3065 3065 3065 3065 3066 3066 3066 3066 3066 3066 3066 3066 3066 3066 3065 3065 3065 3065 3065 3065 3065 3066 3066 3066 3066 3066 3067 3067 3068 3068 3069 3069 3070 3070 3071 3071 3072 3073
3080 3079 3079 3078 3078 3078 3078 3077 3076 3076 3075 3074 3074 3073 3073 3072 3072 3071 3070 3070 3070 3069 3068 3068 3068 3067 3067 3066 3066 3066 3065 3065 3065 3064 3064 3064 3063 3063 3063 3063 3063 3063 3063 3063 3063 3063 3063 3063 3063 3063 3064 3064 3064 3064 3064 3064 3064 3064 3064 3064 3064 3064 3064 3063 3063 3063 3063 3063 3064 3064 3064 3064 3065 3065 3066 3066 3067 3067 3068 3068 3068 3069 3069 3070 3071 3071
3078 3077 3077 3076 3076 3075 3075 3074 3074 3073 3073 3072 3072 3071 3070 3070 3070 3069 3069 3068 3068 3067 3067 3066 3066 3066 3065 3065 3064 3064 3064 3064 3063 3063 3063 3062 3062 3062 3061 3061 3061 3061 3061 3061 3061 3061 3062 3062 3062 3062 3062 3063 3063 3063 3063 3063 3063 3063 3063 3062 3062 3062 3062 3062 3062 3062 3062 3062 3062 3063 3063 3063 3063 3064 3064 3065 3065 3066 3066 3067 3067 3068 3068 3069 3069 3070
3075 3075 3074 3074 3074 3073 3073 3072 3072 3071 3070 3070 3070 3069 3068 3068 3068 3067 3067 3066 3066 3065 3065 3064 3064 3064 3063 3063 3063 3062 3062 3062 3062 3061 3061 3060 3060 3060 3060 3059 3059 3059 3060 3060 3060 3060 3060 3060 3060 3061 3061 3061 3061 3061 3061 3061 3061 3061 3061 3061 3061 3060 3060 3060 3060 3060 3060 3060 3061 3061 3061 3062 3062 3062 3063 3063 3064 3064 3065 3065 3066 3066 3067 3068 3068 3069
3073 3073 3072 3072 3072 3071 3071 3070 3070 3069 3068 3068 3067 3067 3066 3066 3065 3065 3064 3064 3064 3063 3063 3063 3062 3062 3062 3062 3061 3061 3061 3060 3060 3060 3059 3059 3058 3058 3058 3058 3058 3058 3058 3058 3058 3058 3059 3059 3059 3059 3059 3059 3060 3059 3059 3059 3059 3059 3059 3059 3059 3058 3058 3058 3058 3058 3059 3059 3059 3059 3060 3060 3060 3061 3061 3062 3062 3063 3063 3064 3064 3065 3066 3066 3067 3068
3070 3070 3070 3069 3069 3069 3068 3068 3067 3067 3066 3066 3065 3064 3064 3063 3063 3063 3063 3062 3062 3061 3061 3061 3061 3060 3060 3060 3060 3059 3059 3059 3059 3058 3058 3058 3057 3057 3057 3057 3057 3057 3057 3057 3057 3057 3057 3057 3057 3058 3058 3058 3058 3058 3058 3058 3057 3057 3057 3057 3057 3057 3057 3057 3057 3057 3057 3058 3058 3058 3058 3058 3059 3059 3060 3060 3061 3061 3062 3062 3063 3063 3064 3065 3066 3067
3068 3068 3067 3067 3067 3066 3066 3065 3065 3064 3064 3063 3063 3062 3062 3061 3061 3061 3061 3060 3060 3059 3059 3059 3059 3059 3058 3058 3058 3058 3057 3057 3057 3057 3057 3056 3056 3055 3055 3055 3055 3055 3055 3055 3055 3055 3055 3055 3055 3056 3056 3056 3056 3056 3056 3056 3055 3055 3055 3055 3055 3055 3055 3055 3055 3055 3056 3056 3056 3057 3057 3057 3058 3058 3058 3059 3059 3060 3060 3061 3062 3062 3063 3064 3065 3066
3066 3065 3065 3064 3064 3064 3063 3063 3063 3062 3061 3061 3061 3060 3060 3059 3059 3058 3058 3058 3058 3058 3058 3058 3057 3057 3057 3056 3056 3056 3056 3055 3055 3055 3055 3054 3054 3054 3053 3053 3053 3053 3053 3053 3053 3053 3053 3053 3054 3054 3054 3054 3054 3054 3054 3054 3054 3053 3053 3053 3053 3053 3053 3053 3053 3054 3054 3054 3055 3055 3055 3056 3056 3056 3057 3058 3058 3058 3059 3060 3060 3061 3062 3063 3063 3064
3063 3063 3063 3062 3062 3061 3061 3060 3060 3059 3059 3058 3058 3058 3058 3057 3057 3057 3056 3056 3056 3056 3056 3056 3055 3055 3055 3055 3054 3054 3054 3053 3053 3053 3053 3053 3053 3052 3052 3052 3052 3052 3052 3052 3052 3052 3052 3052 3052 3052 3052 3052 3052 3052 3052 3052 3052 3052 3051 3051 3051 3051 3051 3052 3052 3052 3053 3053 3053 3053 3054 3054 3054 3055 3055 3056 3057 3057 3058 3058 3059 3060 3061 3062 3062 3063
3060 3060 3060 3060 3059 3058 3058 3058 3058 3057 3057 3056 3056 3056 3055 3055 3055 3055 3054 3054 3054 3054 3054 3053 3053 3053 3053 3053 3053 3052 3052 3052 3052 3051 3051 3051 3051 3051 3050 3050 3050 3050 3050 3051 3051 3051 3050 3050 3050 3050 3050 3050 3050 3050 3050 3050 3050 3049 3049 3049 3049 3049 3049 3050 3050 3050 3051 3051 3052 3052 3052 3053 3053 3053 3054 3054 3055 3056 3056 3057 3058 3058 3059 3060 3061 3062
3058 3058 3057 3057 3056 3056 3055 3055 3055 3055 3054 3054 3053 3053 3053 3053 3053 3053 3052 3052 3052 3052 3052 3052 3052 3051 3051 3051 3051 3050 3050 3050 3050 3050 3050 3049 3049 3049 3049 3049 3049 3049 3049 3049 3049 3049 3048 3048 3048 3048 3048 3048 3048 3048 3048 3048 3048 3047 3047 3047 3047 3048 3048 3048 3048 3049 3049 3050 3050 3050 3051 3051 3052 3052 3053 3053 3053 3054 3055 3056 3057 3057 3058 3059 3060 3060
3055 3055 3055 3054 3054 3053 3053 3053 3053 3053 3052 3052 3052 3051 3051 3051 3051 3051 3050 3050 3050 3050 3050 3050 3049 3049 3049 3049 3049 3048 3048 3048 3048 3048 3048 3048 3048 3048 3047 3047 3047 3047 3047 3047 3047 3047 3046 3046 3046 3046 3046 3045 3045 3045 3045 3045 3045 3045 3045 3045 3045 3046 3046 3046 3047 3047 3048 3048 3048 3049 3049 3050 3050 3051 3051 3052 3052 3053 3054 3054 3055 3056 3057 3058 3058 3059
3053 3052 3052 3052 3052 3051 3051 3050 3050 3050 3050 3050 3049 3049 3049 3049 3049 3048 3048 3048 3048 3048 3048 3048 3048 3047 3047 3047 3047 3047 3047 3047 3046 3046 3046 3046 3046 3046 3046 3045 3045 3045 3045 3045 3044 3044 3044 3043 3043 3043 3043 3043 3043 3043 3043 3043 3043 3043 3043 3043 3043 3044 3044 3045 3045 3046 3046 3046 3047 3047 3048 3048 3049 3049 3050 3050 3051 3052 3053 3053 3054 3055 3056 3056 3057 3058
3050 3050 3049 3049 3049 3049 3048 3048 3048 3048 3048 3048 3047 3047 3047 3047 3047 3046 3046 3046 3046 3046 3046 3046 3046 3045 3045 3045 3045 3045 3044 3044 3044 3044 3044 3044 3044 3044 3044 3043 3043 3042 3042 3042 3042 3042 3042 3041 3041 3041 3041 3041 3041 3041 3041 3041 3041 3041 3041 3041 3042 3042 3043 3043 3043 3044 3044 3045 3045 3046 3046 3047 3047 3048 3048 3049 3050 3050 3051 3052 3053 3053 3054 3055 3056 3056
3048 3048 3047 3047 3047 3046 3046 3046 3046 3045 3045 3045 3045 3045 3045 3045 3044 3044 3044 3044 3044 3044 3044 3044 3043 3043 3043 3043 3043 3043 3042 3042 3042 3042 3042 3042 3042 3042 3042 3041 3040 3040 3040 3040 3040 3039 3039 3039 3038 3038 3038 3038 3038 3038 3038 3038 3038 3039 3039 3039 3040 3040 3041 3042 3042 3043 3043 3043 3044 3044 3045 3046 3046 3047 3047 3048 3048 3049 3050 3051 3052 3052 3053 3054 3054 3055
3045 3045 3045 3044 3044 3044 3044 3043 3043 3043 3043 3043 3043 3043 3043 3042 3042 3042 3042 3042 3042 3042 3042 3042 3042 3042 3041 3041 3041 3041 3040 3040 3040 3040 3040 3040 3040 3040 3039 3039 3038 3038 3038 3038 3037 3037 3037 3036 3036 3036 3036 3036 3036 3036 3036 3036 3037 3037 3037 3038 3038 3039 3039 3040 3040 3041 3042 3042 3043 3043 3044 3044 3045 3045 3046 3047 3047 3048 3049 3049 3050 3051 3052 3052 3053 3053
3043 3043 3043 3042 3042 3042 3042 3042 3041 3041 3041 3041 3041 3040 3040 3040 3040 3040 3040 3040 3040 3039 3039 3040 3040 3040 3039 3039 3039 3039 3038 3038 3038 3038 3038 3038 3038 3038 3037 3037 3036 3035 3035 3035 3035 3035 3034 3034 3034 3034 3034 3034 3034 3034 3034 3034 3035 3035 3035 3036 3037 3037 3038 3038 3039 3039 3040 3041 3041 3042 3042 3043 3043 3044 3045 3045 3046 3047 3047 3048 3049 3050 3050 3051 3052 3052
3041 3041 3040 3040 3040 3040 3040 3039 3039 3039 3039 3039 3038 3038 3038 3038 3038 3038 3038 3038 3038 3038 3038 3038 3038 3038 3038 3038 3037 3037 3036 3036 3036 3035 3035 3035 3035 3035 3035 3034 3034 3033 3033 3033 3033 3033 3032 3032 3032 3032 3032 3032 3032 3032 3032 3033 3033 3033 3034 3034 3035 3036 3036 3037 3038 3038 3038 3039 3040 3040 3041 3042 3042 3043 3043 3044 3045 3045 3046 3047 3048 3048 3049 3049 3050 3051
3039 3038 3038 3038 3038 3038 3038 3037 3037 3037 3037 3037 3036 3036 3036 3036 3036 3036 3036 3036 3036 3036 3036 3036 3036 3036 3036 3036 3035 3035 3034 3034 3034 3033 3033 3033 3033 3033 3033 3032 3032 3031 3031 3031 3030 3030 3030 3030 3030 3030 3030 3030 3030 3030 3030 3031 3031 3032 3032 3033 3033 3034 3035 3035 3036 3037 3037 3038 3038 3039 3040 3040 3041 3041 3042 3043 3043 3044 3045 3045 3046 3047 3048 3048 3049 3049
3037 3037 3036 3036 3036 3036 3035 3035 3035 3035 3035 3034 3034 3034 3034 3033 3033 3033 3033 3033 3033 3034 3034 3034 3034 3033 3033 3033 3033 3033 3033 3032 3032 3031 3031 3031 3031 3031 3031 3030 3030 3029 3029 3028 3028 3028 3028 3028 3028 3028 3028 3028 3028 3028 3029 3029 3030 3030 3031 3031 3032 3033 3033 3034 3034 3035 3036 3036 3037 3038 3038 3039 3039 3040 3041 3041 3042 3043 3043 3044 3045 3045 3046 3047 3047 3048
3035 3034 3034 3034 3034 3033 3033 3033 3033 3033 3033 3032 3032 3032 3032 3032 3032 3032 3032 3032 3032 3032 3032 3032 3032 3032 3032 3032 3031 3031 3031 3030 3030 3029 3029 3029 3029 3029 3029 3028 3028 3027 3027 3027 3027 3027 3026 3027 3027 3027 3027 3027 3027 3027 3028 3028 3028 3029 3029 3030 3030 3031 3032 3033 3033 3034 3034 3035 3036 3036 3037 3037 3038 3038 3039 3040 3040 3041 3042 3043 3043 3044 3044 3045 3046 3046
3033 3033 3032 3032 3032 3031 3031 3031 3030 3030 3030 3030 3030 3030 3030 3029 3029 3029 3029 3029 3030 3030 3030 3030 3030 3030 3030 3029 3029 3029 3029 3029 3028 3027 3027 3027 3027 3027 3027 3026 3026 3025 3025 3025 3025 3025 3025 3025 3025 3025 3025 3026 3026 3026 3026 3026 3027 3027 3028 3028 3029 3030 3030 3031 3032 3032 3033 3033 3034 3035 3035 3036 3036 3037 3038 3038 3039 3040 3040 3041 3042 3042 3043 3043 3044 3045
3032 3031 3031 3030 3030 3029 3029 3029 3028 3028 3028 3028 3028 3028 3028 3028 3028 3028 3028 3028 3028 3028 3028 3028 3028 3028 3028 3027 3027 3027 3027 3027 3026 3025 3025 3025 3025 3025 3025 3024 3024 3023 3023 3023 3023 3023 3023 3023 3024 3024 3024 3024 3024 3025 3025 3025 3026 3026 3027 3027 3028 3028 3029 3029 3030 3031 3031 3032 3033 3033 3034 3034 3035 3036 3036 3037 3037 3038 3039 3039 3040 3040 3041 3042 3042 3043
3030 3029 3029 3028 3028 3028 3027 3027 3026 3026 3026 3026 3026 3026 3026 3026 3026 3026 3026 3026 3026 3026 3026 3025 3025 3025 3025 3025 3025 3025 3025 3025 3024 3024 3023 3023 3023 3023 3023 3023 3022 3022 3022 3022 3022 3022 3022 3022 3022 3023 3023 3023 3023 3023 3023 3024 3024 3025 3025 3026 3027 3027 3028 3028 3029 3029 3030 3030 3031 3032 3032 3033 3033 3034 3034 3035 3036 3036 3037 3038 3038 3039 3039 3040 3041 3041
3028 3028 3027 3027 3026 3026 3025 3025 3024 3024 3024 3024 3024 3024 3024 3024 3024 3024 3024 3024 3024 3024 3024 3023 3023 3023 3023 3023 3023 3023 3023 3023 3022 3022 3022 3022 3021 3021 3021 3020 3020 3020 3020 3020 3020 3020 3020 3020 3021 3021 3021 3021 3022 3022 3022 3023 3023 3024 3024 3025 3025 3026 3026 3027 3027 3028 3028 3029 3029 3030 3031 3031 3032 3033 3033 3033 3034 3035 3035 3036 3037 3037 3038 3038 3039 3040
3026 3025 3025 3025 3024 3024 3023 3023 3023 3023 3022 3022 3022 3022 3022 3022 3022 3022 3022 3022 3022 3022 3021 3021 3021 3021 3021 3021 3021 3021 3020 3020 3020 3020 3019 3019 3019 3019 3019 3018 3018 3018 3018 3018 3018 3018 3018 3019 3019 3019 3020 3020 3020 3021 3021 3021 3022 3022 3023 3023 3024 3024 3025 3025 3026 3026 3027 3028 3028 3028 3029 3030 3030 3031 3031 3032 3033 3033 3034 3034 3035 3036 3036 3037 3038 3038
3024 3023 3023 3023 3022 3022 3021 3021 3021 3021 3020 3020 3020 3020 3020 3020 3020 3020 3020 3019 3019 3019 3019 3019 3019 3019 3019 3019 3018 3018 3018 3018 3018 3017 3017 3017 3017 3017 3017 3017 3017 3016 3016 3016 3017 3017 3017 3017 3018 3018 3018 3018 3019 3019 3019 3020 3020 3021 3022 3022 3023 3023 3023 3024 3024 3025 3025 3026 3027 3027 3028 3028 3028 3029 3030 3030 3031 3031 3032 3033 3033 3034 3034 3035 3036 3036
3022 3022 3021 3021 3021 3020 3020 3019 3019 3019 3018 3018 3018 3018 3018 3018 3018 3018 3018 3017 3017 3017 3017 3017 3017 3017 3017 3016 3016 3016 3016 3016 3015 3015 3015 3015 3015 3015 3015 3015 3015 3015 3014 3014 3015 3015 3015 3016 3016 3016 3017 3017 3017 3018 3018 3018 3019 3020 3020 3021 3021 3022 3022 3023 3023 3023 3024 3024 3025 3025 3026 3026 3027 3028 3028 3028 3029 3030 3030 3031 3032 3032 3033 3033 3034 3035
3020 3020 3019 3019 3019 3018 3018 3018 3017 3017 3017 3016 3016 3016 3016 3015 3015 3015 3015 3015 3015 3014 3014 3014 3014 3014 3014 3014 3014 3014 3013 3013 3013 3013 3013 3013 3013 3013 3013 3013 3013 3013 3013 3013 3013 3013 3013 3014 3014 3015 3015 3015 3016 3016 3016 3017 3017 3018 3019 3019 3020 3020 3020 3021 3021 3022 3022 3023 3023 3024 3024 3025 3025 3026 3026 3027 3027 3028 3028 3029 3030 3030 3031 3032 3033 3033
3018 3018 3018 3017 3017 3017 3016 3016 3015 3015 3015 3014 3014 3014 3013 3013 3013 3013 3013 3012 3012 3012 3012 3012 3012 3012 3012 3012 3011 3011 3011 3011 3011 3010 3010 3010 3010 3011 3011 3011 3011 3011 3011 3011 3011 3011 3012 3012 3013 3013 3013 3014 3014 3014 3015 3015 3016 3016 3017 3018 3018 3018 3019 3019 3020 3020 3021 3021 3022 3022 3023 3023 3023 3024 3024 3025 3026 3026 3027 3027 3028 3028 3029 3030 3031 3031
3016 3016 3015 3015 3015 3015 3014 3013 3013 3013 3013 3012 3012 3011 3011 3011 3010 3010 3010 3010 3010 3009 3009 3009 3009 3009 3009 3009 3009 3008 3008 3008 3008 3008 3008 3008 3008 3008 3008 3009 3009 3009 3009 3009 3009 3010 3010 3010 3011 3011 3012 3012 3013 3013 3013 3013 3014 3014 3015 3016 3016 3017 3017 3018 3018 3018 3019 3019 3020 3020 3021 3021 3022 3022 3023 3023 3024 3024 3025 3025 3026 3027 3027 3028 3029 3030
3014 3014 3013 3013 3013 3013 3012 3012 3011 3011 3010 3010 3009 3009 3009 3008 3008 3008 3008 3008 3007 3007 3007 3007 3007 3007 3007 3007 3006 3006 3006 3006 3006 3006 3006 3006 3006 3006 3006 3007 3007 3007 3007 3007 3008 3008 3008 3008 3009 3010 3010 3011 3011 3011 3012 3012 3012 3013 3013 3014 3014 3015 3015 3016 3016 3017 3017 3018 3018 3018 3019 3019 3020 3020 3021 3021 3022 3023 3023 3023 3024 3025 3025 3026 3027 3028
3013 3012 3012 3012 3011 3011 3010 3010 3009 3009 3008 3008 3007 3007 3007 3006 3006 3006 3005 3005 3005 3005 3005 3005 3005 3004 3004 3004 3004 3004 3003 3003 3003 3004 3004 3004 3004 3004 3004 3004 3004 3005 3005 3005 3006 3006 3006 3007 3007 3008 3008 3009 3009 3010 3010 3010 3011 3011 3012 3012 3013 3013 3013 3014 3014 3015 3015 3016 3016 3017 3017 3018 3018 3018 3019 3019 3020 3021 3021 3022 3022 3023 3024 3024 3025 3026
3011 3010 3010 3010 3009 3009 3008 3008 3008 3007 3006 3006 3005 3005 3004 3004 3004 3003 3003 3003 3003 3003 3003 3002 3002 3002 3002 3002 3002 3002 3001 3001 3001 3002 3002 3002 3002 3002 3002 3002 3003 3003 3003 3003 3004 3004 3004 3005 3005 3006 3006 3007 3007 3008 3008 3009 3009 3009 3010 3010 3011 3011 3012 3012 3012 3013 3013 3014 3014 3015 3015 3016 3016 3017 3017 3018 3018 3018 3019 3020 3020 3021 3022 3023 3023 3024
3009 3008 3008 3008 3008 3007 3007 3006 3006 3005 3004 3004 3003 3003 3003 3002 3002 3001 3001 3001 3001 3001 3000 3000 3000 3000 3000 3000 3000 3000 2999 2999 2999 2999 3000 3000 3000 3000 3000 3000 3000 3001 3001 3001 3002 3002 3003 3003 3003 3004 3004 3005 3005 3006 3007 3007 3007 3008 3008 3008 3009 3009 3010 3010 3010 3011 3011 3012 3012 3013 3013 3013 3014 3014 3015 3016 3016 3017 3017 3018 3018 3019 3020 3021 3021 3022
3007 3007 3006 3006 3005 3005 3005 3004 3004 3003 3003 3002 3002 3001 3001 3000 3000 2999 2999 2999 2999 2999 2998 2998 2998 2998 2998 2998 2998 2998 2998 2997 2997 2997 2998 2998 2998 2998 2998 2998 2998 2998 2999 2999 3000 3000 3001 3001 3001 3002 3003 3003 3003 3004 3004 3005 3005 3006 3006 3006 3007 3007 3008 3008 3008 3009 3009 3010 3010 3011 3011 3011 3012 3012 3013 3014 3014 3015 3015 3016 3017 3017 3018 3018 3019 3020
3004 3004 3004 3003 3003 3003 3003 3002 3002 3001 3001 3000 3000 2999 2999 2998 2998 2998 2997 2997 2997 2997 2996 2996 2996 2996 2996 2996 2995 2995 2995 2995 2995 2995 2995 2996 2996 2996 2996 2996 2996 2997 2997 2997 2998 2998 2999 2999 2999 3000 3001 3001 3002 3002 3003 3003 3003 3003 3004 3004 3004 3005 3005 3006 3006 3007 3007 3008 3008 3008 3008 3009 3010 3010 3011 3012 3012 3013 3013 3014 3015 3015 3016 3017 3017 3018
3002 3002 3002 3001 3001 3001 3000 3000 3000 2999 2999 2998 2998 2998 2997 2997 2996 2996 2995 2995 2995 2995 2994 2994 2994 2994 2994 2994 2993 2993 2993 2993 2993 2993 2993 2993 2993 2994 2994 2994 2994 2995 2995 2995 2996 2996 2997 2997 2998 2998 2999 2999 3000 3000 3000 3000 3001 3001 3002 3002 3002 3003 3003 3004 3004 3005 3005 3005 3006 3006 3006 3007 3008 3008 3009 3009 3010 3011 3012 3012 3013 3013 3014 3014 3015 3016
3000 2999 2999 2999 2998 2998 2998 2998 2997 2997 2997 2996 2996 2996 2995 2995 2994 2994 2993 2993 2993 2993 2993 2992 2992 2992 2992 2992 2991 2991 2991 2991 2991 2991 2992 2992 2992 2992 2992 2992 2993 2993 2993 2993 2994 2994 2995 2995 2996 2996 2997 2997 2998 2998 2998 2998 2998 2999 2999 2999 3000 3000 3001 3002 3002 3003 3003 3003 3003 3004 3004 3005 3005 3006 3007 3007 3008 3009 3009 3010 3011 3011 3012 3013 3013 3014
2998 2997 2997 2996 2996 2996 2996 2995 2995 2994 2994 2994 2994 2993 2993 2993 2993 2992 2992 2991 2991 2991 2991 2990 2990 2990 2990 2990 2989 2989 2989 2989 2989 2989 2989 2989 2989 2990 2990 2990 2991 2991 2991 2991 2992 2992 2993 2993 2993 2994 2994 2995 2995 2996 2996 2996 2996 2996 2997 2997 2998 2998 2999 2999 3000 3000 3001 3001 3001 3002 3002 3003 3003 3004 3004 3005 3006 3007 3008 3008 3009 3009 3010 3010 3011 3012
2995 2995 2994 2994 2994 2993 2993 2993 2993 2992 2992 2992 2991 2991 2991 2991 2991 2990 2990 2990 2989 2989 2989 2988 2988 2988 2988 2988 2988 2987 2987 2987 2987 2987 2987 2988 2988 2988 2988 2988 2988 2989 2989 2989 2990 2990 2991 2991 2992 2992 2993 2993 2993 2993 2993 2993 2994 2994 2995 2995 2996 2996 2996 2997 2997 2998 2998 2999 2999 2999 3000 3000 3001 3002 3002 3003 3004 3005 3005 3006 3007 3007 3008 3008 3008 3009
2993 2992 2992 2992 2991 2991 2991 2990 2990 2990 2989 2989 2989 2989 2989 2989 2988 2988 2988 2988 2987 2987 2987 2987 2986 2986 2986 2986 2986 2985 2985 2985 2985 2985 2985 2985 2985 2986 2986 2986 2986 2987 2987 2987 2988 2988 2988 2989 2990 2990 2990 2990 2990 2991 2991 2991 2992 2992 2993 2993 2993 2994 2994 2995 2995 2995 2996 2996 2997 2998 2998 2998 2999 2999 3000 3001 3002 3003 3003 3004 3004 3005 3005 3006 3006 3007